Tracking 19717 objects as of 24-Jun-2019
HD Live streaming from Space Station
objects crossing your sky now

DELTA 2 R/B(1)

Track DELTA 2 R/B(1) now!
10-day predictions


NORAD ID: 34382
Int'l Code: 2009-011C
Perigee: 2,252.9 km
Apogee: 7,366.7 km
Inclination: 28.6 °
Period: 196.1 minutes
Semi major axis: 11180 km
RCS: 11.699 m2 (large)
Launch date: March 7, 2009
Source: United States (US)
Launch site: AIR FORCE EASTERN TEST RANGE (AFETR)

Note: This is a ROCKET BODY
aabbcc
Your satellite tracking list
Your tracking list is empty




NASA's NSSDC Master Catalog

Two Line Element Set (TLE):
1 34382U 09011C   19174.41979633 +.00000064 +00000-0 +13021-1 0  9993
2 34382 028.5570 302.3769 2286883 191.1107 230.8939 07.34336649276358
Source of the keplerian elements: AFSPC